Location: Lhota
(50.0887°N, 14.0116°E)
Time: 09:51:02
(UTC+00:00)

Cosmos 1656 - Pass Details

Date: 19 May 2025
Orbit: 797 x 847 km, 71.1° (Epoch: 23 June)

Event Time Altitude Azimuth Distance (km) Brightness Sun altitude
Rises 19:49:51 0° 327° (NNW) 3,408 8.8 -8.3°
Reaches altitude 10° 19:52:23 10° 323° (NW) 2,464 7.8 -8.6°
Maximum altitude 19:57:47 49° 250° (WSW) 1,064 4.4 -9.2°
Drops below altitude 10° 20:03:06 10° 176° (S) 2,416 5.6 -9.8°
Enters shadow 20:04:00 - 174° (S) 2,747 5.9 -9.9°
